Flag for Czech Republic Weather past 2 weeks in Liberec, Czech Republic

Now
60 °F

Fog.


Feels Like: 61 °F
Forecast: 48 / 61 °F
Wind: 3 mph from Northwest

Location: Liberec

Current Time: Oct 1, 2014 at 11:02:53 AM

Latest Report: Oct 1, 2014 at 10:00 AM


Visibility: 3 mi

Pressure: 30.29 "Hg

Humidity: 96%

Dew point: 59 °F

Location of LiberecLocation

Historic Weather in Liberec — Graph

°F

Liberec temperature yesterday

Maximum temperature yesterday: 65 °F (at 2:00 PM)
Minimum temperature yesterday: 52 °F (at 4:00 AM)
Average temperature yesterday: 58 °F

Past Weeks' High & Low Weather Summary

 TemperatureHumidityPressure
High75 °F (Sep 16, 1:00 PM)100% (Sep 21, 7:00 AM)30.44 "Hg (Sep 21, 7:00 AM)
Low35 °F (Sep 24, 2:00 AM)41% (Sep 16, 1:00 PM)29.82 "Hg (Sep 21, 6:00 PM)
Average56 °F83%30.09 "Hg
* Reported Sep 16 9:00 AM — Oct 1 9:00 AM, Liberec, Weather by CustomWeather, © 2014

Note: Actual official high and low records may vary slightly from our data, if they occured in-between our weather recording intervals... More about our weather records

Advertising

Liberec weather history for previous 24 hours

 ConditionsComfort  
Time TempWeatherWind HumidityBarometerVisibility
9:00 AM
Oct 1
58 °FFog.1 mph100%30.29 "Hg1 mi
8:00 AM56 °FFog.1 mph100%30.29 "Hg0 mi
7:00 AM56 °FFog.1 mph100%30.29 "Hg1 mi
6:00 AM56 °FCool.1 mph100%30.29 "Hg1 mi
5:00 AM56 °FDuststorm.1 mph100%30.29 "Hg0 mi
4:00 AM56 °FRain showers. Overcast.1 mph100%30.29 "Hg1 mi
3:00 AM57 °FCool.2 mph99%30.29 "Hg1 mi
2:00 AM57 °FRain showers. Overcast.1 mph99%30.28 "Hg1 mi
1:00 AM57 °FLight rain. Overcast.1 mph99%30.28 "Hg2 mi
12:00 AM56 °FFog.1 mph100%30.29 "Hg2 mi
11:00 PM
Sep 30
56 °FCool.No wind100%30.29 "Hg1 mi
10:00 PM56 °FFog.1 mph96%30.29 "Hg3 mi
9:00 PM58 °FFog.1 mph96%30.28 "Hg3 mi
8:00 PM59 °FOvercast.No wind93%30.27 "Hg6 mi
7:00 PM60 °FOvercast.1 mph92%30.27 "Hg6 mi
6:00 PM62 °FMild.1 mph87%30.24 "Hg7 mi
5:00 PM64 °FOvercast.1 mph80%30.24 "Hg9 mi
4:00 PM64 °FOvercast.No wind79%30.24 "Hg9 mi
3:00 PM64 °FOvercast.1 mph76%30.24 "Hg9 mi
2:00 PM65 °FOvercast.1 mph71%30.24 "Hg11 mi
1:00 PM65 °FOvercast.2 mph73%30.24 "Hg9 mi
12:00 PM65 °FOvercast.2 mph70%30.24 "Hg10 mi
11:00 AM62 °FPartly sunny.2 mph77%30.25 "Hg10 mi
Weather by CustomWeather, © 2014

See weather overviewHow to use our weather pages